CW2654 Weather Reports


Display with metric or nautical units.
time (UTC)temp
F
wind
direction
speed
MPH
gust
MPH
rain 1hr
in
rain 24hr
in
rain mn
in
humidity
%
barometer
mb
20260510150056 52 0 0.0 1.0 0.00 0.00 0.00 92 1018.1
20260510144602 51 0 0.0 1.0 0.00 0.00 0.00 92 1018.1
20260510143050 51 0 0.0 0.0 0.00 0.00 0.00 93 1018.0
20260510141553 51 0 0.0 1.0 0.00 0.00 0.00 93 1018.0
20260510140053 51 0 0.0 3.0 0.00 0.00 0.00 93 1017.6
20260510134553 51 0 0.0 1.0 0.00 0.00 0.00 94 1017.4
20260510133053 51 0 0.0 2.0 0.00 0.00 0.00 94 1017.4
20260510131550 50 0 0.0 1.0 0.00 0.00 0.00 94 1017.2
20260510130051 50 0 0.0 2.0 0.00 0.00 0.00 95 1017.7
20260510124552 50 0 0.0 4.0 0.00 0.00 0.00 96 1017.6
20260510123053 50 0 0.0 3.0 0.00 0.00 0.00 97 1017.6
20260510121554 49 0 0.0 1.0 0.00 0.00 0.00 97 1017.7
20260510120050 47 0 0.0 2.0 0.00 0.00 0.00 95 1017.4
20260510114609 47 97 0.0 3.0 0.00 0.00 0.00 96 1017.7
20260510113058 47 0 0.0 3.0 0.00 0.00 0.00 96 1017.6
20260510111555 47 0 0.0 4.0 0.00 0.00 0.00 95 1017.2
20260510110056 47 0 0.0 2.0 0.00 0.00 0.00 95 1017.2
20260510104550 47 109 1.0 3.0 0.00 0.00 0.00 95 1016.8
20260510103056 47 105 1.0 3.0 0.00 0.00 0.00 95 1016.5
20260510101603 48 107 0.0 4.0 0.00 0.00 0.00 94 1016.2
20260510100105 48 97 1.0 6.0 0.00 0.00 0.00 94 1016.3
20260510094556 48 114 1.0 4.0 0.00 0.00 0.00 94 1016.4
20260510093055 48 108 1.0 4.0 0.00 0.00 0.00 94 1016.4
20260510091554 48 0 0.0 3.0 0.00 0.00 0.00 93 1016.1
20260510090052 49 0 0.0 3.0 0.00 0.00 0.00 93 1016.0
20260510084609 49 105 1.0 3.0 0.00 0.00 0.00 92 1016.1
20260510083058 49 101 1.0 3.0 0.00 0.00 0.00 92 1016.2
20260510081556 50 105 0.0 2.0 0.00 0.00 0.00 91 1016.1
20260510080100 50 106 1.0 4.0 0.00 0.00 0.00 91 1016.2
20260510074555 50 103 1.0 3.0 0.00 0.00 0.00 90 1016.4
20260510073055 50 99 2.0 6.0 0.00 0.00 0.00 90 1016.3
20260510071553 51 109 1.0 4.0 0.00 0.00 0.00 89 1016.4
20260510070107 51 105 1.0 4.0 0.00 0.00 0.00 89 1016.1
20260510064556 51 107 1.0 4.0 0.00 0.00 0.00 88 1016.2
20260510063054 51 109 1.0 4.0 0.00 0.00 0.00 88 1016.2
20260510061556 52 0 1.0 4.0 0.00 0.00 0.00 87 1016.1
20260510060050 52 100 1.0 4.0 0.00 0.00 0.00 87 1016.1
20260510054552 53 105 2.0 4.0 0.00 0.00 0.00 86 1016.1
20260510053057 53 107 1.0 4.0 0.00 0.00 0.00 85 1016.2
20260510051605 54 107 2.0 4.0 0.00 0.00 0.00 85 1016.4
20260510050111 54 106 0.0 4.0 0.00 0.00 0.00 84 1016.2
20260510044552 55 105 1.0 4.0 0.00 0.00 0.00 83 1016.0
20260510043057 56 105 2.0 4.0 0.00 0.00 0.00 83 1015.8
20260510041600 56 107 2.0 4.0 0.00 0.00 0.00 82 1015.6
20260510040104 57 105 1.0 4.0 0.00 0.00 0.00 82 1015.6
20260510034552 58 107 2.0 3.0 0.00 0.00 0.00 80 1015.3
20260510033100 60 106 2.0 3.0 0.00 0.00 0.00 79 1015.4
20260510031602 61 103 0.0 3.0 0.00 0.00 0.00 76 1015.3
20260510030059 63 105 1.0 3.0 0.00 0.00 0.00 74 1015.3
20260510024554 65 0 0.0 0.0 0.00 0.00 0.00 71 1015.2
20260510023052 67 0 0.0 2.0 0.00 0.00 0.00 68 1015.3
20260510021641 70 164 1.0 2.0 0.00 0.00 0.00 62 1015.4
20260510020059 72 0 0.0 1.0 0.00 0.00 0.00 53 1015.3
20260510014558 71 0 0.0 1.0 0.00 0.00 0.00 47 1015.4
20260510013100 71 0 0.0 1.0 0.00 0.00 0.00 51 1015.6
20260510011552 72 231 0.0 2.0 0.00 0.00 0.00 49 1015.5
20260510010059 72 0 0.0 3.0 0.00 0.00 0.00 50 1015.8
20260510004555 73 0 0.0 3.0 0.00 0.00 0.00 52 1015.7
20260510003103 73 0 1.0 5.0 0.00 0.00 0.00 51 1015.9
20260510001603 74 0 2.0 7.0 0.00 0.00 0.00 51 1016.1
20260510000054 73 0 0.0 8.0 0.00 0.00 0.00 54 1015.9
20260509234553 73 303 0.0 7.0 0.00 0.00 0.00 57 1016.0
20260509233051 73 0 1.0 4.0 0.00 0.00 0.00 56 1016.1
20260509231553 74 0 0.0 7.0 0.00 0.00 0.00 60 1016.3
20260509230054 73 0 2.0 7.0 0.00 0.00 0.00 56 1016.5
20260509224553 74 0 0.0 4.0 0.00 0.00 0.00 57 1016.9
20260509223053 74 0 1.0 8.0 0.00 0.00 0.00 59 1016.8
20260509221550 73 0 0.0 6.0 0.00 0.00 0.00 58 1017.1
20260509220052 73 265 0.0 4.0 0.00 0.00 0.00 62 1017.2
20260509214552 72 322 1.0 6.0 0.00 0.00 0.00 59 1017.4
20260509213108 71 310 2.0 6.0 0.00 0.00 0.00 58 1017.4
20260509211602 71 17 1.0 8.0 0.00 0.00 0.00 56 1017.5
20260509210053 70 22 1.0 5.0 0.00 0.00 0.00 58 1017.7
20260509204556 69 348 2.0 6.0 0.00 0.00 0.00 61 1017.8
20260509203053 69 352 1.0 7.0 0.00 0.00 0.00 59 1018.0
20260509201603 68 322 2.0 11.0 0.00 0.00 0.00 59 1018.1
20260509200057 66 302 1.0 5.0 0.00 0.00 0.00 60 1018.2
20260509194558 65 298 1.0 6.0 0.00 0.00 0.00 59 1018.2
20260509193057 65 281 2.0 5.0 0.00 0.00 0.00 61 1018.7
20260509191606 64 316 0.0 5.0 0.00 0.00 0.00 68 1018.9
20260509190055 63 326 2.0 6.0 0.00 0.00 0.00 67 1019.1
20260509184610 62 282 2.0 5.0 0.00 0.00 0.00 69 1019.4
20260509183100 61 338 2.0 5.0 0.00 0.00 0.00 70 1019.3
20260509181602 61 304 1.0 5.0 0.00 0.00 0.00 75 1019.3
20260509180115 60 0 1.0 4.0 0.00 0.00 0.00 78 1019.5
20260509174558 59 0 2.0 5.0 0.00 0.00 0.00 78 1019.7
20260509173106 59 348 1.0 4.0 0.00 0.00 0.00 80 1020.0
20260509171559 58 342 1.0 4.0 0.00 0.00 0.00 77 1020.0
20260509170055 57 348 0.0 4.0 0.00 0.00 0.00 79 1020.3
20260509164558 56 343 1.0 3.0 0.00 0.00 0.00 80 1020.5
20260509163056 56 5 1.0 5.0 0.00 0.00 0.00 83 1020.7
20260509161601 55 0 0.0 0.0 0.00 0.00 0.00 87 1020.7
20260509160058 53 0 0.0 0.0 0.00 0.00 0.00 90 1020.6
20260509154552 51 0 0.0 0.0 0.00 0.00 0.00 93 1020.8
20260509153059 50 0 0.0 0.0 0.00 0.00 0.00 95 1021.0
20260509151552 49 0 0.0 0.0 0.00 0.00 0.00 97 1021.3